Weather in Yayva

Russia / Perm Krai     59°19′35″N   57°15′19″E
temp.,
°C
wind,
m/s
gust,
m/s
humid.,
%
clouds,
%
prec.,
mm/h
press.,
hPa
HPBL,
m
2 march, tue
tue223:00−16s4119672 0.0 1011330
02:00−16s5129497 0.0 1008415
05:00−15s6139399 0.1 1005495
08:00−13s61293100 0.5 1001626
11:00−12ssw61293100 1.3 999706
14:00−11ssw51193100 1.0 997695
17:00−11s51092100 1.8 996646
20:00−12s41094100 0.3 995499
3 march, wed
wed323:00−11s3995100 0.6 995372
02:00−11s3795100 0.3 994271
05:00−11sse249798 0.6 994120
08:00−12s249798 0.1 993100
11:00−8ssw249597 0.3 993257
14:00−4wsw2494100 0.3 993437
17:00−3w3595100 0.6 994460
20:00−5w2697100 0.6 995252
4 march, thu
thu423:00−7w2597100 1.0 996173
02:00−9wnw2597100 0.4 996188
05:00−14wsw229896 0.4 99720
08:00−13ssw249798 0.2 997131
11:00−10ssw359498 0.4 997314
14:00−7sw4691100 0.2 996615
17:00−7sw4789100 0.4 996795
20:00−9ssw399596 0.1 996297
5 march, fri
fri523:00−9s4119498 0.2 995462
02:00−8sse51194100 0.4 990584
05:00−7sse61394100 1.9 986810
08:00−4s51296100 2.4 983708
11:00−4wsw61192100 3.7 9841103
14:00−5wsw71188100 0.7 9881106
17:00−6wnw61091100 1.4 994988
20:00−10w41093100 0.3 999593
6 march, sat
sat623:00−12w3895100 0.6 1003429
02:00−15w3796100 0.3 1005296
05:00−20w2210099 0.3 100820
08:00−20ssw1299100 0.1 100922
11:00−16ssw2394100 0.1 1009276
14:00−11ssw1287100 0.0 1007493
17:00−11e1186100 0.1 1005447
20:00−15nne2294100 0.0 100322